�N����,����,�~����,�C��,���x,�C��,����,���ϕ���,�ő�u�ԕ���,�ő厞����,���˗�,�I�_���x,�n�����x,�ő啗���N��,DTYPE
"22/09/11","00:10",0.0,23.8,90.9,1009.5,299.6,1.3,2.4,295.3,0.00,22.3,26.4,"00:09:04",1
"22/09/11","00:20",0.0,23.7,91.1,1009.5,303.0,1.1,1.9,327.9,0.00,22.2,26.4,"00:11:44",1
"22/09/11","00:30",0.0,23.6,91.4,1009.3,320.4,1.2,2.2,316.3,0.00,22.2,26.4,"00:25:36",1
"22/09/11","00:40",0.0,23.6,91.7,1009.7,303.8,1.3,2.0,330.5,0.00,22.2,26.5,"00:35:28",1
"22/09/11","00:50",0.0,23.5,91.8,1009.7,302.5,1.3,2.4,305.6,0.00,22.1,26.2,"00:44:24",1
"22/09/11","01:00",0.0,23.6,92.1,1010.0,304.2,1.7,3.4,328.5,0.00,22.3,26.4,"00:57:52",1
"22/09/11","01:10",0.0,23.6,92.1,1009.7,316.4,2.0,3.4,323.3,0.00,22.3,26.1,"01:05:12",1
"22/09/11","01:20",0.0,23.5,92.2,1009.5,324.6,1.5,2.5,352.2,0.00,22.2,26.3,"01:17:20",1
"22/09/11","01:30",0.0,23.4,92.3,1009.5,305.9,1.2,2.5,315.0,0.00,22.1,26.3,"01:23:52",1
"22/09/11","01:40",0.0,23.4,92.5,1009.3,291.8,1.1,2.4,319.1,0.00,22.2,26.1,"01:30:40",1
"22/09/11","01:50",0.0,23.4,92.6,1009.0,284.1,1.0,1.4,304.4,0.00,22.2,26.2,"01:48:24",1
"22/09/11","02:00",0.0,23.3,92.7,1009.3,297.1,1.1,2.1,334.5,0.00,22.1,26.1,"01:56:00",1
"22/09/11","02:10",0.0,23.3,92.7,1009.3,298.7,1.1,1.6,323.2,0.00,22.1,26.0,"02:01:04",1
"22/09/11","02:20",0.0,23.3,92.8,1009.0,315.0,1.5,2.7,330.9,0.00,22.1,26.0,"02:17:36",1
"22/09/11","02:30",0.0,23.3,92.8,1009.0,319.4,1.1,1.6,338.7,0.00,22.1,26.2,"02:22:56",1
"22/09/11","02:40",0.0,23.2,92.9,1008.8,306.9,1.2,1.8,312.8,0.00,22.0,26.1,"02:38:56",1
"22/09/11","02:50",0.0,23.2,93.0,1008.6,308.1,1.2,2.0,329.6,0.00,22.0,26.0,"02:45:12",1
"22/09/11","03:00",0.0,23.2,93.1,1008.8,304.4,1.2,2.2,325.4,0.00,22.1,25.9,"02:52:24",1
"22/09/11","03:10",0.0,23.2,93.1,1008.8,316.1,1.3,2.6,315.1,0.00,22.1,26.0,"03:01:36",1
"22/09/11","03:20",0.0,23.0,93.2,1008.8,301.7,1.0,1.8,330.4,0.00,21.9,26.0,"03:12:40",1
"22/09/11","03:30",0.0,22.9,93.2,1008.6,288.7,1.0,1.7,326.5,0.00,21.8,25.7,"03:23:44",1
"22/09/11","03:40",0.0,22.9,93.3,1008.8,291.1,1.1,1.9,260.7,0.00,21.8,25.7,"03:38:24",1
"22/09/11","03:50",0.0,22.8,93.4,1008.8,302.8,1.1,1.4,283.3,0.00,21.7,25.7,"03:42:16",1
"22/09/11","04:00",0.0,22.8,93.4,1008.6,292.4,1.1,1.8,316.2,0.00,21.7,25.8,"03:50:24",1
"22/09/11","04:10",0.0,22.6,93.5,1008.8,295.5,0.8,1.3,315.9,0.00,21.5,25.8,"04:05:20",1
"22/09/11","04:20",0.0,22.6,93.6,1008.6,302.2,1.2,1.9,339.1,0.00,21.6,25.6,"04:16:56",1
"22/09/11","04:30",0.0,22.5,93.7,1008.8,322.1,1.2,1.7,342.4,0.00,21.5,25.7,"04:20:16",1
"22/09/11","04:40",0.0,22.5,93.7,1008.6,319.4,1.0,1.6,285.9,0.00,21.5,25.7,"04:32:00",1
"22/09/11","04:50",0.0,22.4,93.9,1008.8,279.3,1.0,1.3,262.1,0.00,21.4,25.8,"04:46:56",1
"22/09/11","05:00",0.0,22.3,94.0,1008.6,292.1,1.1,1.7,331.2,0.00,21.3,25.7,"04:55:28",1
"22/09/11","05:10",0.0,22.4,94.0,1008.6,314.5,1.1,1.6,331.0,0.00,21.4,25.4,"05:03:44",1
"22/09/11","05:20",0.0,22.2,94.1,1008.6,312.0,1.2,1.7,314.4,0.00,21.2,25.6,"05:11:04",1
"22/09/11","05:30",0.0,22.2,94.2,1008.8,292.1,0.8,1.3,312.7,0.00,21.3,25.6,"05:27:44",1
"22/09/11","05:40",0.0,22.2,94.2,1009.0,301.6,1.1,1.7,314.8,0.00,21.3,25.4,"05:32:32",1
"22/09/11","05:50",0.0,22.2,94.2,1009.0,310.9,1.3,2.4,327.4,0.00,21.3,25.3,"05:45:12",1
"22/09/11","06:00",0.0,22.2,94.3,1009.3,313.6,1.3,2.6,330.0,0.00,21.3,25.5,"05:53:52",1
"22/09/11","06:10",0.0,22.2,94.4,1009.3,309.9,1.0,1.6,312.4,0.00,21.3,25.5,"06:05:52",1
"22/09/11","06:20",0.0,22.2,94.5,1009.3,306.8,1.3,2.5,329.6,0.00,21.3,25.4,"06:18:56",1
"22/09/11","06:30",0.0,22.3,94.6,1009.3,310.6,1.2,2.1,323.6,0.00,21.4,25.4,"06:28:32",1
"22/09/11","06:40",0.0,22.4,94.6,1009.0,307.4,1.5,2.6,320.7,0.00,21.5,25.4,"06:38:40",1
"22/09/11","06:50",0.0,22.6,94.6,1009.3,319.0,1.3,2.4,322.2,0.00,21.7,25.2,"06:45:44",1
"22/09/11","07:00",0.0,22.7,94.5,1009.0,312.7,1.3,2.1,322.3,0.01,21.8,25.4,"06:54:24",1
"22/09/11","07:10",0.0,23.1,94.4,1009.3,308.7,1.1,2.5,328.0,0.02,22.2,25.4,"07:00:16",1
"22/09/11","07:20",0.0,23.6,94.1,1009.0,281.1,0.8,1.7,263.9,0.03,22.6,25.3,"07:13:04",1
"22/09/11","07:30",0.0,23.9,93.5,1009.3,279.5,0.8,1.9,331.6,0.05,22.8,25.3,"07:29:20",1
"22/09/11","07:40",0.0,24.2,93.1,1009.3,284.6,1.1,2.0,240.7,0.07,23.1,25.2,"07:38:00",1
"22/09/11","07:50",0.0,25.0,92.4,1009.0,338.9,0.7,1.7,250.0,0.09,23.7,25.5,"07:40:24",1
"22/09/11","08:00",0.0,25.5,91.0,1009.3,324.1,0.5,1.8,354.4,0.12,24.0,25.3,"07:51:36",1
"22/09/11","08:10",0.0,26.0,89.9,1008.8,245.7,0.6,2.0,232.4,0.14,24.3,25.2,"08:06:00",1
"22/09/11","08:20",0.0,26.4,87.8,1008.6,256.6,0.7,2.1,216.2,0.17,24.3,25.3,"08:18:08",1
"22/09/11","08:30",0.0,27.0,85.7,1008.6,317.2,0.7,2.0,344.7,0.19,24.4,25.3,"08:22:32",1
"22/09/11","08:40",0.0,27.2,82.2,1008.6,224.5,1.0,1.9,231.7,0.22,23.9,25.3,"08:38:56",1
"22/09/11","08:50",0.0,28.2,79.5,1008.8,235.6,0.5,1.2,236.2,0.25,24.4,25.3,"08:44:32",1
"22/09/11","09:00",0.0,28.6,75.5,1009.0,75.9,0.7,1.4,63.6,0.27,23.9,25.4,"08:52:40",1
"22/09/11","09:10",0.0,29.5,72.2,1009.0,41.5,0.5,1.4,334.8,0.29,24.0,25.3,"09:03:52",1
"22/09/11","09:20",0.0,30.0,69.7,1009.5,72.8,0.7,1.9,108.2,0.32,23.9,25.6,"09:11:28",1
"22/09/11","09:30",0.0,30.1,67.3,1009.7,2.4,0.8,2.4,348.4,0.34,23.4,25.3,"09:25:52",1
"22/09/11","09:40",0.0,30.5,66.3,1009.7,25.7,0.6,1.6,2.7,0.36,23.5,25.5,"09:38:00",1
"22/09/11","09:50",0.0,31.0,64.0,1010.0,8.9,0.6,1.7,7.3,0.38,23.4,25.7,"09:45:28",1
"22/09/11","10:00",0.0,31.5,62.0,1010.2,39.2,0.5,1.2,16.0,0.40,23.4,25.7,"09:54:48",1
"22/09/11","10:10",0.0,31.6,61.7,1010.2,8.9,0.7,2.4,346.4,0.42,23.4,25.6,"10:03:36",1
"22/09/11","10:20",0.0,31.5,60.8,1010.2,40.0,0.8,2.2,89.8,0.43,23.1,25.8,"10:19:04",1
"22/09/11","10:30",0.0,31.8,61.9,1010.0,77.0,0.5,1.7,7.9,0.45,23.6,25.8,"10:21:28",1
"22/09/11","10:40",0.0,32.2,60.5,1010.2,14.1,0.6,1.8,45.9,0.47,23.6,25.9,"10:38:32",1
"22/09/11","10:50",0.0,32.2,59.0,1010.2,151.1,0.8,2.6,172.9,0.48,23.2,26.0,"10:48:32",1
"22/09/11","11:00",0.0,31.6,58.9,1010.2,199.6,1.6,3.2,236.1,0.49,22.6,25.7,"10:52:48",1
"22/09/11","11:10",0.0,32.2,55.8,1010.0,285.2,0.5,1.6,351.3,0.50,22.3,26.2,"11:09:44",1
"22/09/11","11:20",0.0,32.4,55.8,1010.0,341.8,0.8,2.0,354.3,0.51,22.5,26.1,"11:15:04",1
"22/09/11","11:30",0.0,33.2,54.8,1010.0,68.9,0.7,1.9,224.4,0.52,22.9,26.2,"11:28:24",1
"22/09/11","11:40",0.0,33.1,56.3,1009.7,151.3,1.1,1.8,177.3,0.53,23.3,26.4,"11:32:16",1
"22/09/11","11:50",0.0,33.4,55.4,1009.7,111.5,1.0,2.0,136.9,0.53,23.3,26.2,"11:41:44",1
"22/09/11","12:00",0.0,33.5,53.5,1010.0,186.8,1.0,2.9,230.1,0.54,22.8,26.3,"11:57:20",1
"22/09/11","12:10",0.0,33.7,54.6,1009.7,151.5,1.0,2.2,175.9,0.54,23.3,26.5,"12:05:36",1
"22/09/11","12:20",0.0,33.9,51.1,1009.7,216.2,0.8,3.1,221.5,0.55,22.4,26.7,"12:12:56",1
"22/09/11","12:30",0.0,34.2,49.8,1010.0,214.1,0.6,2.9,213.5,0.56,22.3,26.7,"12:26:16",1
"22/09/11","12:40",0.0,33.7,50.9,1010.0,209.5,1.2,3.2,221.5,0.48,22.2,26.8,"12:38:16",1
"22/09/11","12:50",0.0,34.0,51.2,1009.3,242.3,0.8,1.7,350.2,0.56,22.5,27.1,"12:46:24",1
"22/09/11","13:00",0.0,34.3,50.5,1009.3,206.1,0.8,2.9,231.3,0.56,22.6,27.0,"12:58:40",1
"22/09/11","13:10",0.0,34.3,52.0,1009.3,201.6,1.5,4.1,224.5,0.57,23.1,27.3,"13:01:20",1
"22/09/11","13:20",0.0,33.8,52.3,1009.0,203.1,2.2,4.1,238.0,0.50,22.7,27.2,"13:14:40",1
"22/09/11","13:30",0.0,34.0,48.7,1008.8,323.4,1.0,2.2,6.4,0.46,21.7,27.4,"13:22:56",1
"22/09/11","13:40",0.0,33.8,51.7,1008.6,270.8,0.5,1.3,213.3,0.17,22.5,27.4,"13:36:00",1
"22/09/11","13:50",0.0,32.8,55.2,1008.3,198.5,1.5,3.5,194.0,0.18,22.7,27.4,"13:41:28",1
"22/09/11","14:00",0.0,32.9,56.8,1007.8,114.9,0.7,2.1,184.4,0.25,23.2,27.6,"13:50:16",1
"22/09/11","14:10",0.0,34.3,51.0,1008.1,159.4,1.0,2.0,190.0,0.46,22.7,27.6,"14:04:24",1
"22/09/11","14:20",0.0,34.7,54.8,1008.3,71.4,0.5,1.8,56.8,0.33,24.3,27.7,"14:14:32",1
"22/09/11","14:30",0.0,34.9,52.7,1008.1,49.1,1.0,2.0,15.2,0.44,23.8,27.8,"14:20:48",1
"22/09/11","14:40",0.0,34.1,52.5,1007.8,67.1,0.8,2.2,354.8,0.24,23.0,27.8,"14:34:24",1
"22/09/11","14:50",0.0,34.0,55.5,1007.1,48.3,0.8,1.9,354.9,0.27,23.9,28.0,"14:45:36",1
"22/09/11","15:00",0.0,34.9,50.5,1007.6,34.7,0.7,1.6,331.5,0.41,23.1,28.0,"14:59:04",1
"22/09/11","15:10",0.0,35.3,47.6,1007.6,1.8,0.7,1.7,21.7,0.41,22.5,27.9,"15:01:20",1
"22/09/11","15:20",0.0,35.7,47.1,1007.8,232.0,0.6,2.4,222.2,0.40,22.7,28.2,"15:16:08",1
"22/09/11","15:30",0.0,36.4,46.0,1007.8,42.9,0.5,1.3,32.8,0.39,23.0,28.1,"15:22:08",1
"22/09/11","15:40",0.0,35.8,49.9,1007.6,169.4,0.8,1.9,140.1,0.36,23.8,28.5,"15:37:12",1
"22/09/11","15:50",0.0,35.6,49.0,1007.8,130.7,0.7,1.9,182.0,0.32,23.3,28.4,"15:40:24",1
"22/09/11","16:00",0.0,35.3,48.0,1007.4,84.1,0.7,2.0,106.5,0.24,22.7,28.4,"15:52:16",1
"22/09/11","16:10",0.0,34.9,49.4,1007.4,77.0,0.6,1.9,129.4,0.18,22.8,28.6,"16:07:20",1
"22/09/11","16:20",0.0,35.1,50.4,1007.1,34.7,0.7,3.1,137.8,0.24,23.3,28.5,"16:17:12",1
"22/09/11","16:30",0.0,35.0,48.2,1007.4,20.4,0.7,2.0,356.1,0.17,22.5,28.4,"16:25:36",1
"22/09/11","16:40",0.0,35.2,50.5,1007.1,59.1,0.5,1.7,356.7,0.19,23.4,28.7,"16:34:40",1
"22/09/11","16:50",0.0,34.8,48.9,1006.9,49.9,0.8,2.2,52.8,0.16,22.5,28.5,"16:48:48",1
"22/09/11","17:00",0.0,34.2,50.1,1006.7,94.3,0.8,2.1,102.5,0.10,22.4,28.5,"16:55:04",1
"22/09/11","17:10",0.0,33.4,51.3,1006.4,83.1,0.7,1.7,106.8,0.06,22.0,28.5,"17:08:24",1
"22/09/11","17:20",0.0,33.8,51.1,1006.0,38.6,0.6,1.7,356.0,0.08,22.3,28.4,"17:19:12",1
"22/09/11","17:30",0.0,33.8,51.5,1006.2,35.3,0.6,1.6,40.0,0.06,22.4,28.6,"17:28:40",1
"22/09/11","17:40",0.0,33.5,53.7,1006.4,100.8,0.5,1.4,140.2,0.04,22.9,28.7,"17:36:16",1
"22/09/11","17:50",0.0,32.8,53.8,1006.0,130.7,1.0,2.0,186.0,0.02,22.2,28.6,"17:46:56",1
"22/09/11","18:00",0.0,31.9,57.7,1005.7,15.9,0.5,1.7,121.9,0.00,22.6,28.5,"17:50:08",1
"22/09/11","18:10",0.0,31.1,62.7,1005.2,330.3,0.6,1.3,9.3,0.00,23.2,28.5,"18:08:00",1
"22/09/11","18:20",0.0,30.3,65.2,1005.0,346.3,0.7,1.3,345.4,0.00,23.1,28.6,"18:16:32",1
"22/09/11","18:30",0.0,29.6,67.4,1004.8,282.2,0.3,1.1,241.1,0.00,23.0,28.6,"18:29:36",1
"22/09/11","18:40",0.0,28.9,70.0,1004.3,298.6,1.0,2.5,338.0,0.00,22.9,28.5,"18:37:44",1
"22/09/11","18:50",0.0,28.3,73.0,1004.3,320.6,1.1,2.1,347.8,0.00,23.0,28.6,"18:46:32",1
"22/09/11","19:00",0.0,28.1,74.3,1005.0,316.2,1.0,1.8,331.1,0.00,23.1,28.5,"18:51:44",1
"22/09/11","19:10",0.0,27.9,75.2,1005.0,304.8,1.0,2.0,332.2,0.00,23.1,28.5,"19:06:16",1
"22/09/11","19:20",0.0,27.8,76.1,1005.0,320.5,0.8,1.8,297.5,0.00,23.2,28.1,"19:12:08",1
"22/09/11","19:30",0.0,27.7,77.3,1005.2,343.8,0.7,1.3,350.4,0.00,23.4,28.3,"19:22:24",1
"22/09/11","19:40",0.0,27.1,78.2,1006.0,305.0,0.6,1.0,344.7,0.00,23.0,28.2,"19:30:40",1
"22/09/11","19:50",0.0,26.6,79.5,1006.2,310.2,0.6,0.9,336.2,0.00,22.8,28.3,"19:44:00",1
"22/09/11","20:00",0.0,26.5,80.7,1006.2,330.4,0.6,1.2,341.7,0.00,23.0,28.2,"19:56:56",1
"22/09/11","20:10",0.0,26.3,81.9,1006.7,325.8,0.8,1.3,344.0,0.00,23.0,28.2,"20:08:44",1
"22/09/11","20:20",0.0,26.0,83.0,1006.9,341.5,1.1,1.4,355.5,0.00,22.9,28.1,"20:16:24",1
"22/09/11","20:30",0.0,25.9,83.7,1006.9,344.7,1.0,1.6,349.7,0.00,23.0,27.9,"20:23:04",1
"22/09/11","20:40",0.0,25.9,84.0,1007.1,318.2,0.8,1.2,318.8,0.00,23.0,27.9,"20:32:00",1
"22/09/11","20:50",0.0,25.9,84.2,1007.4,283.7,0.6,1.2,306.3,0.00,23.1,28.2,"20:42:16",1
"22/09/11","21:00",0.0,25.8,84.2,1007.6,330.0,1.0,1.4,315.4,0.00,23.0,27.7,"20:59:04",1
"22/09/11","21:10",0.0,25.8,84.1,1007.6,307.2,0.7,1.2,323.5,0.00,22.9,27.9,"21:03:52",1
"22/09/11","21:20",0.0,25.7,84.3,1007.4,304.1,0.7,1.2,318.5,0.00,22.9,27.9,"21:19:12",1
"22/09/11","21:30",0.0,25.6,84.5,1007.6,314.5,1.0,1.6,321.1,0.00,22.8,27.9,"21:27:12",1
"22/09/11","21:40",0.0,25.7,84.4,1007.8,322.1,1.0,2.0,319.8,0.00,22.9,27.7,"21:33:12",1
"22/09/11","21:50",0.0,25.7,84.5,1007.6,322.8,0.8,1.2,343.2,0.00,22.9,27.7,"21:43:12",1
"22/09/11","22:00",0.0,25.6,84.8,1007.4,306.4,1.0,1.6,341.8,0.00,22.9,27.7,"21:52:32",1
"22/09/11","22:10",0.0,25.5,84.9,1007.8,301.6,1.0,2.0,326.5,0.00,22.8,27.5,"22:07:04",1
"22/09/11","22:20",0.0,25.7,84.7,1007.8,306.0,1.1,2.4,334.8,0.00,23.0,27.7,"22:13:12",1
"22/09/11","22:30",0.0,25.7,84.6,1008.1,312.9,0.8,1.2,315.6,0.00,22.9,27.4,"22:25:44",1
"22/09/11","22:40",0.0,25.6,84.5,1008.1,292.4,0.6,1.2,310.5,0.00,22.8,27.4,"22:32:08",1
"22/09/11","22:50",0.0,25.4,84.7,1008.6,280.2,0.6,1.2,268.4,0.00,22.7,27.5,"22:49:12",1
"22/09/11","23:00",0.0,25.3,84.8,1008.1,285.3,0.7,1.4,261.3,0.00,22.6,27.3,"22:51:36",1
"22/09/11","23:10",0.0,25.2,84.8,1008.3,295.0,1.0,1.6,305.9,0.00,22.5,27.5,"23:08:08",1
"22/09/11","23:20",0.0,25.1,84.9,1008.3,293.9,1.0,1.7,293.2,0.00,22.4,27.3,"23:15:52",1
"22/09/11","23:30",0.0,24.8,85.0,1008.3,301.7,0.7,1.9,257.0,0.00,22.1,27.3,"23:24:00",1
"22/09/11","23:40",0.0,24.6,85.1,1008.3,318.7,1.1,2.1,331.2,0.00,22.0,27.3,"23:35:52",1
"22/09/11","23:50",0.0,24.5,85.3,1008.6,324.9,1.2,2.4,339.3,0.00,21.9,27.2,"23:44:24",1
"22/09/11","24:00",0.0,24.4,85.4,1008.3,348.1,0.8,1.3,332.3,0.00,21.8,27.0,"23:50:48",1
